Location: Grand Lay
(47.3253°N, 0.9468°E)
Time: 19:55:53
(UTC+00:00)

Gbstr 26 Del rocket - Pass Details

Date: 13 April 2026
Orbit: 490 x 1216 km, 51.8° (Epoch: 13 May)

Event Time Altitude Azimuth Distance (km) Brightness Sun altitude
Exits shadow 01:44:47 24° 59° (ENE) 1,063 4.8 -28.8°
Drops below altitude 10° 01:46:21 10° 64° (ENE) 1,683 6.0 -28.7°
Sets 01:48:30 0° 66° (ENE) 2,569 7.0 -28.5°
